Presure
153 172 164 156 160 158 156 171 184 171 171 168 153 181 182 167 164 163 160 159 177 172 158 181 155 166 150 181 153 177 181 143 182 190 162 169 189 193 195 201 170 194 195 193 189
161 156 150 184 154 180 167 159 165 161 176 183 177 154 169 159 151 177 175 177 174 168 178 176 147 173 178 181 180 177 179 184 190 189 187 193 170 188 187 201 198 183 189 194 163
162 164 140 152 162 152 185 180 164 160 169 150 168 159 177 167 175 174 168 155 151 157 155 163 175 178 171 171 163 162 174 166 185 165 171 187 185 186 190 198 197 204 171 211 190
157 134 161 144 144 166 153 163 149 151 177 164 171 169 170 145 173 174 177 159 168 171 168 172 170 172 150 137 166 172 178 172 152 191 189 175 189 191 198 195 170 190 199 192 206
154 164 145 167 156 158 160 175 166 162 158 154 163 170 170 165 176 174 165 161 162 161 159 169 173 165 166 172 173 169 173 187 176 176 193 184 205 204 179 199 211 191 197 203 173
154 155 147 138 159 161 165 163 159 170 144 146 142 155 168 154 177 159 169 164 165 177 149 158 161 174 175 169 175 138 186 172 187 178 171 181 186 182 183 188 166 154 194 205 190
148 156 146 155 143 151 159 162 160 166 167 173 184 171 148 160 159 173 154 179 188 179 161 179 163 173 170 182 184 180 174 183 174 182 178 172 187 184 189 180 191 198 202 199 207
143 157 151 154 147 157 153 136 164 167 153 152 165 161 155 163 168 157 140 140 153 174 185 177 180 184 185 180 178 184 184 182 188 198 194 192 191 195 182 189 190 193 194 189 194
154 152 155 142 147 148 144 141 160 146 158 167 159 162 148 168 137 154 210 201 200 195 174 165 188 186 167 175 178 175 168 175 166 167 167 170 175 170 179 180 178 193 203 216 197
138 151 155 149 154 162 142 141 152 160 161 169 178 155 153 163 156 163 174 186 139 177 170 151 185 159 177 170 175 177 168 170 171 186 169 169 172 171 169 176 183 183 187 191 190
156 164 142 158 142 141 126 158 166 143 143 166 157 128 170 159 173 165 145 177 186 176 162 162 175 147 186 167 155 175 173 192 175 170 165 161 171 178 192 208 182 198 200 204 190
155 134 152 154 163 155 139 154 151 151 169 161 160 126 154 168 167 152 152 166 159 168 168 137 166 162 165 172 177 178 177 166 176 174 186 183 176 175 187 199 197 201 199 186 210
153 168 154 150 143 151 158 147 160 168 146 154 156 132 159 167 152 144 159 152 177 169 163 167 167 164 167 186 179 175 164 163 184 170 177 184 176 167 177 201 195 209 213 213 224
160 142 155 162 157 164 161 152 161 160 162 150 151 161 153 169 170 157 168 126 192 184 174 165 171 167 176 157 170 168 185 156 180 163 157 161 167 164 171 200 184 191 212 211 217
117 158 146 154 155 132 161 152 151 158 163 150 158 158 151 162 171 153 160 175 184 191 177 159 171 152 175 157 174 147 168 189 157 196 165 192 181 163 179 183 216 218 203 229 213
165 160 143 142 171 171 148 169 152 152 161 158 154 152 166 146 157 165 140 159 183 173 171 155 150 170 163 168 172 192 164 168 168 161 171 200 162 185 192 180 198 199 217 228 131
168 150 157 125 149 157 161 160 154 149 137 154 159 165 134 158 152 141 161 149 163 170 151 183 166 174 154 186 166 156 158 183 188 186 175 174 181 179 205 211 205 208 211 224 271
161 151 126 159 147 165 151 154 152 151 133 139 157 149 163 189 163 147 176 159 172 191 159 165 175 162 177 158 166 169 175 181 155 172 180 170 193 202 180 197 182 194 220 232 268
123 166 168 137 128 157 159 136 165 142 161 164 153 155 165 159 143 160 153 154 164 176 175 164 166 163 151 167 169 170 155 177 186 171 172 187 184 180 190 186 224 208 223 231 282
160 147 137 163 146 161 146 161 162 154 159 160 150 157 134 151 165 160 165 155 162 154 156 164 154 151 172 170 173 156 165 174 180 184 179 177 216 221 216 218 234 244 239 253 273
151 163 149 157 142 158 164 157 161 160 157 163 168 160 160 168 154 154 169 139 155 151 151 148 171 170 149 175 184 178 177 168 187 175 186 177 198 217 191 201 234 236 248 274 269
184 157 162 175 170 148 146 125 153 146 151 167 170 165 153 172 175 176 158 167 171 162 174 173 162 180 163 164 165 168 171 165 166 167 190 198 183 206 203 224 242 298 280 275 262
168 151 140 147 145 139 168 172 155 161 160 158 161 157 157 167 149 167 175 151 159 170 175 175 175 162 148 168 169 171 178 171 178 178 166 181 189 208 192 243 263 291 284 274 261
166 154 147 163 162 174 167 173 171 162 160 173 159 168 148 162 160 172 168 169 168 168 167 167 171 173 171 158 183 182 192 175 176 200 180 165 187 214 213 247 252 293 285 273 274
170 164 150 155 209 183 179 177 175 170 158 175 169 172 161 165 169 170 173 152 165 170 168 179 175 159 173 169 174 195 196 171 191 176 172 177 192 188 246 244 300 293 286 284 290
168 145 171 186 150 157 189 188 164 174 175 169 170 172 169 169 166 167 177 184 184 179 168 185 183 181 188 176 186 196 151 181 178 195 184 185 202 190 256 278 296 291 282 294 282
170 157 147 207 177 168 154 184 184 186 178 157 181 170 187 165 179 189 185 188 184 180 170 180 185 185 168 180 174 161 183 197 193 178 178 191 243 263 307 301 301 290 296 292 276
Wind_Speed
32 31 29 33 29 30 29 28 24 26 25 23 27 23 23 22 23 24 30 21 25 20 25 27 30 25 30 25 28 26 15 23 19 27 27 27 20 22 22 27 32 23 20 23 29
34 28 32 28 30 30 26 25 23 22 27 28 25 27 24 27 32 26 24 23 25 21 31 27 31 23 24 27 26 22 25 25 36 31 29 33 29 26 27 31 24 29 28 21 33
40 39 39 30 31 31 34 30 23 25 26 31 25 24 24 25 28 26 26 34 37 29 32 26 29 28 21 22 27 25 26 29 35 29 28 33 33 29 31 35 28 30 34 30 22
42 41 39 38 36 41 31 28 31 31 28 28 25 24 22 37 27 30 32 30 29 29 30 33 31 30 33 33 28 34 37 32 33 45 40 36 36 37 41 37 36 26 31 28 29
43 49 37 51 37 41 39 46 34 29 31 34 34 31 27 26 42 39 25 31 32 35 33 33 35 36 31 35 38 36 40 45 38 37 42 35 47 49 33 46 48 34 34 35 34
44 46 45 41 47 49 50 47 38 43 39 42 44 39 35 35 46 38 43 33 36 47 38 38 38 42 42 38 42 33 39 35 42 38 37 35 42 35 36 42 36 39 42 45 35
44 52 41 46 39 42 49 53 47 47 45 48 38 35 45 37 39 56 34 59 55 49 39 44 39 44 43 42 41 44 42 44 40 47 42 37 47 47 48 37 45 51 51 45 49
45 56 47 50 42 54 47 39 55 53 43 41 49 38 38 47 53 42 44 45 45 48 43 42 43 41 40 42 44 44 44 46 47 47 47 51 53 54 45 52 49 50 49 42 43
55 55 56 53 49 48 46 51 57 43 59 58 43 45 39 54 46 48 48 45 38 40 41 41 37 32 43 46 48 47 45 49 41 44 45 45 51 41 50 49 43 59 62 69 51
50 57 57 54 58 63 47 47 52 58 60 56 40 47 45 62 53 54 64 52 44 42 41 46 39 43 45 49 51 51 49 52 49 59 55 56 62 54 47 55 58 51 52 53 47
62 66 49 61 50 47 49 64 65 58 47 62 57 53 67 57 61 64 44 65 51 52 49 49 49 41 47 54 41 56 56 53 61 59 55 48 66 74 76 81 65 79 78 77 49
63 52 59 62 61 63 59 63 57 61 66 58 59 55 57 71 68 53 52 67 52 59 59 44 57 54 59 63 62 62 61 57 65 67 67 69 72 77 80 86 85 83 79 58 86
64 64 65 59 61 58 68 55 67 69 57 61 64 53 67 70 55 56 60 56 69 70 60 62 63 62 62 60 60 58 60 61 65 72 70 74 76 75 78 90 88 91 88 87 85
64 53 69 69 66 70 71 65 71 66 58 56 62 71 67 75 71 57 69 44 65 67 69 66 68 67 71 54 68 67 68 52 69 62 57 61 66 73 78 86 83 87 91 91 86
57 69 60 69 67 54 64 70 62 65 63 65 72 70 64 78 77 53 70 76 74 66 73 62 74 56 72 59 75 50 73 78 60 76 74 80 83 81 89 86 95 100 93 91 89
77 73 61 51 79 79 68 74 66 68 71 77 77 70 82 58 73 80 49 74 71 63 68 64 60 75 69 73 70 73 74 79 77 68 76 88 70 92 94 90 91 90 90 88 38
83 65 79 64 63 72 64 76 74 71 54 81 73 86 48 84 69 62 82 64 76 63 71 73 73 76 67 81 81 66 68 86 83 84 83 84 90 95 103 99 94 92 92 90 80
83 76 67 84 65 81 74 77 78 81 72 61 89 60 90 79 92 53 83 78 88 76 85 79 76 76 82 80 90 91 96 93 63 81 88 85 98 103 95 101 86 96 90 85 79
68 86 85 63 67 84 86 51 86 68 94 91 85 81 96 85 53 90 68 77 87 84 92 73 83 76 67 98 98 93 68 95 101 87 94 100 102 101 104 101 100 100 92 83 73
87 77 66 89 74 90 69 93 90 91 93 91 83 81 58 84 102 87 97 87 99 79 83 76 65 64 108 103 95 75 86 97 105 110 104 107 111 101 106 105 97 102 92 97 71
99 84 70 81 74 94 94 93 95 96 91 98 99 99 101 104 87 81 105 65 90 89 86 59 102 103 68 114 117 116 103 103 112 108 112 111 104 108 112 110 101 96 94 80 68
83 84 99 94 98 77 75 70 94 76 90 103 104 104 91 105 106 109 92 109 106 108 110 111 94 109 110 112 103 107 110 93 88 103 115 116 114 114 115 110 99 86 84 72 69
84 83 61 72 83 64 102 102 89 103 103 92 91 99 95 108 69 102 107 76 97 113 114 111 111 97 59 116 116 109 122 100 126 124 96 120 125 115 123 100 103 82 75 69 70
107 81 65 75 100 105 109 107 109 100 101 114 103 110 86 100 96 111 108 107 106 108 104 104 101 117 113 73 123 121 127 109 118 128 116 99 123 117 116 98 98 79 72 69 67
118 104 78 100 94 109 113 110 108 108 100 118 112 120 104 110 120 116 112 67 98 109 103 111 111 78 108 99 98 121 125 97 121 109 99 116 125 121 98 94 79 74 71 66 62
112 79 119 110 85 98 110 110 118 119 120 118 119 125 112 117 113 108 125 128 125 122 106 126 121 121 120 115 123 117 74 113 108 127 115 115 126 118 103 89 75 71 69 63 57
126 92 71 103 119 89 84 111 116 122 123 87 119 106 132 105 127 129 131 122 126 119 103 125 117 132 72 114 92 50 118 133 126 111 106 127 113 107 80 77 71 70 66 61 57
Wind_Direction
315 341 333 323 328 330 326 335 335 330 335 331 316 335 342 313 310 309 306 321 353 327 309 350 308 324 313 345 310 338 327 297 340 346 294 304 317 323 319 332 291 311 306 304 298
320 316 313 336 318 333 329 318 331 326 340 334 343 322 328 310 307 334 342 349 340 335 346 334 311 330 340 341 341 331 332 339 348 342 339 345 296 322 314 331 319 289 299 300 273
313 322 301 306 319 310 331 332 331 329 324 314 333 318 344 326 341 335 321 296 299 300 295 312 337 338 326 313 323 285 324 319 335 295 299 332 323 325 329 332 325 330 290 330 301
309 298 317 296 300 329 311 323 309 306 337 328 337 333 332 307 340 341 337 311 319 329 325 330 325 328 303 309 320 328 331 316 305 331 332 317 330 330 333 328 301 306 321 301 321
307 311 289 319 316 322 319 324 322 315 310 316 315 321 332 320 341 340 318 309 313 310 314 322 325 320 316 327 326 318 324 328 319 319 336 327 335 334 312 332 332 316 320 323 294
304 304 304 286 316 319 320 320 320 324 301 303 305 298 324 311 337 317 330 315 320 324 308 310 317 326 325 319 317 303 321 315 325 325 319 326 331 322 325 326 298 285 320 323 306
296 301 290 304 292 309 314 316 318 319 318 318 307 322 296 315 313 333 292 322 320 320 313 322 312 316 312 311 313 317 318 320 322 328 323 314 330 328 328 315 328 328 326 322 325
288 298 298 301 300 307 306 294 311 314 309 306 317 317 286 324 326 314 311 298 307 314 308 309 306 308 306 312 313 314 319 323 325 327 328 332 329 330 319 325 325 324 319 317 317
290 295 297 295 293 296 297 303 311 296 314 316 297 321 295 320 292 309 318 316 309 304 306 309 307 306 312 314 317 319 320 322 320 319 318 319 319 309 319 319 316 321 321 322 313
285 287 291 293 296 299 293 291 304 307 311 310 297 318 319 313 308 319 324 321 301 311 306 305 307 307 311 318 317 316 323 322 321 318 321 321 317 314 310 316 315 312 312 313 309
285 286 288 293 289 292 287 302 303 299 295 309 315 297 308 315 314 321 293 320 315 315 313 314 312 303 299 319 314 316 319 320 317 319 317 313 316 317 319 321 316 316 316 316 307
283 285 288 290 289 292 291 297 299 301 301 307 306 295 311 309 314 306 303 316 309 310 308 299 311 317 316 311 312 310 312 320 313 315 316 319 319 317 319 316 314 315 315 309 313
281 277 283 289 287 287 291 294 297 296 300 309 307 283 303 309 306 301 311 306 307 304 304 307 305 311 311 308 312 312 317 319 313 317 316 314 315 314 316 312 312 312 311 312 313
278 282 286 282 286 285 287 294 293 295 292 297 300 300 302 306 305 307 306 294 302 296 298 304 304 305 303 313 310 311 308 314 317 316 314 312 314 309 313 311 313 311 312 310 311
283 285 280 286 285 278 283 295 294 295 294 300 297 299 303 305 302 302 311 306 302 296 295 305 300 309 299 309 303 303 310 307 312 306 315 311 311 311 310 310 315 314 309 311 306
280 279 279 278 282 282 282 287 296 300 295 296 298 301 297 292 304 302 298 307 297 302 294 307 309 297 308 302 308 302 311 310 312 317 312 310 315 307 308 311 308 312 311 310 297
278 272 283 271 273 281 284 290 297 297 275 294 289 293 285 299 294 293 300 305 303 292 309 283 300 291 315 294 307 307 306 302 302 304 309 314 310 309 308 306 307 307 307 312 317
273 283 272 281 286 283 291 292 293 291 279 282 293 296 291 281 295 300 290 304 296 282 308 305 292 308 292 311 307 307 305 303 318 319 313 319 309 308 310 307 309 310 309 320 314
268 269 270 271 276 282 280 280 282 282 286 284 291 292 290 289 287 296 306 305 298 292 294 305 305 306 315 305 304 308 307 307 307 318 322 313 310 312 309 310 309 307 308 314 306
273 267 273 272 286 279 290 282 281 286 283 285 290 283 273 295 289 291 295 301 299 303 306 297 295 313 301 301 301 315 310 312 311 313 313 317 306 307 305 305 310 314 309 316 303
281 263 270 270 281 280 274 282 278 282 282 282 280 285 285 283 281 290 288 284 300 292 298 298 301 299 305 297 295 299 305 313 306 316 310 316 310 305 310 310 310 308 313 310 301
258 266 271 262 264 276 286 269 285 285 286 278 279 280 285 281 281 282 290 287 287 292 287 288 299 292 299 300 304 304 303 316 320 320 312 308 317 306 310 310 310 311 313 304 300
259 277 264 274 264 277 268 265 280 276 281 284 277 286 288 283 286 285 282 288 291 288 289 287 289 295 291 294 297 302 300 311 304 304 315 316 310 306 309 309 317 309 304 300 299
264 267 278 263 281 262 269 263 266 276 281 270 285 277 282 286 287 281 283 284 285 287 290 292 288 290 293 299 292 293 293 305 305 297 310 310 313 305 308 313 314 303 301 300 297
267 268 269 283 267 259 262 265 264 268 284 268 279 271 287 288 284 283 286 282 293 291 293 286 292 286 294 299 301 293 293 300 300 310 313 310 309 309 308 310 303 300 298 300 295
264 271 263 253 278 281 259 260 277 266 268 275 276 275 284 285 287 289 282 279 280 286 293 284 288 294 291 298 297 299 283 304 310 301 310 310 306 312 308 307 300 299 298 297 289
269 271 269 265 261 267 270 264 260 265 267 282 268 281 271 292 281 274 276 278 283 287 292 294 288 293 286 296 305 308 305 297 298 305 310 307 300 306 299 301 299 297 296 291 289